Temperature
15 15 15 15 15 15 15 15 15 14 13 13 13 13 13 13 13 13 14 13 13 13 13 13 14 14 14 14 14 14 14 14 14 14 14 14 14 14
15 15 15 15 15 15 15 15 15 15 14 13 13 13 13 13 13 13 13 13 13 13 13 13 13 13 13 13 13 13 13 13 13 13 13 13 13 13
15 15 15 15 15 15 15 15 15 15 14 14 13 13 13 13 13 13 13 13 13 13 13 13 13 13 13 13 13 13 13 13 13 13 13 13 13 13
15 15 15 15 15 15 15 15 14 14 14 14 14 13 13 13 13 13 13 13 13 13 13 13 12 12 12 12 12 12 12 12 12 12 12 12 12 12
15 15 15 15 15 15 15 15 14 14 14 14 14 13 13 13 13 13 13 13 13 12 12 12 12 12 12 12 12 12 12 12 12 12 12 12 12 12
15 15 15 15 15 15 15 14 14 14 14 14 14 13 13 13 13 13 13 13 13 12 12 12 12 12 12 12 12 12 12 11 11 11 11 11 11 11
15 15 15 15 15 15 14 14 14 14 14 14 14 13 13 13 13 13 13 13 12 12 12 12 12 12 12 12 11 11 11 11 11 11 11 11 11 11
15 15 15 15 14 14 14 14 14 14 14 14 14 13 13 13 13 13 13 12 12 12 12 12 12 12 11 11 11 11 11 11 10 10 10 10 10 10
15 15 15 15 14 14 14 14 14 14 14 13 13 13 13 13 13 12 12 12 12 12 12 12 12 12 11 11 11 10 10 10 10 10 10 10 10 10
15 15 15 15 14 14 14 14 14 14 13 13 13 13 13 12 12 12 12 12 12 12 11 11 11 11 11 11 10 10 10 10 10 10 9 9 9 9
15 15 15 14 14 14 14 14 14 13 13 13 13 13 13 12 12 12 12 12 12 12 11 11 11 11 11 11 10 10 10 10 9 9 9 9 9 9
15 14 14 14 14 14 14 14 14 13 13 13 13 13 12 12 12 12 12 11 11 11 11 10 10 10 10 10 10 10 9 9 9 9 9 8 8 8
15 15 14 14 14 14 14 14 13 13 13 13 13 12 12 12 12 12 11 11 11 11 10 10 10 10 9 9 10 10 9 9 9 8 8 8 8 8
15 14 14 14 14 13 13 13 13 13 13 12 12 12 12 12 12 11 11 11 11 10 10 10 9 9 9 9 9 9 9 8 8 8 8 8 7 7
14 14 14 13 13 13 13 13 13 12 12 12 12 12 12 11 11 11 11 10 10 10 10 10 9 9 9 9 8 8 8 8 8 7 7 7 7 7
14 13 13 13 13 13 13 12 12 12 12 12 12 11 11 11 11 11 10 10 10 10 10 9 9 9 8 8 8 8 7 7 7 7 7 7 6 6
13 13 13 13 13 12 12 12 12 12 11 11 11 11 11 11 10 10 10 10 9 9 9 9 8 8 8 8 7 7 7 7 7 6 6 6 6 6
13 13 12 12 12 12 12 11 11 11 11 11 10 10 10 10 10 9 9 9 9 8 8 8 8 8 8 7 7 7 6 6 6 6 6 5 6 6
12 12 12 12 11 11 11 11 10 10 10 10 10 10 9 9 9 9 8 8 8 8 8 7 7 6 6 6 6 6 6 5 5 5 5 5 5 5
11 11 11 11 10 10 10 10 10 10 9 9 9 9 9 8 8 8 8 7 7 7 7 7 6 6 5 5 5 5 5 5 4 4 4 4 4 4
11 11 10 10 10 10 9 9 9 9 9 9 8 8 8 8 7 7 7 7 6 6 6 6 6 5 5 5 4 5 5 4 4 3 3 3 3 3
10 10 10 9 9 9 9 9 8 8 8 8 7 7 7 7 6 6 6 6 6 5 5 5 5 5 4 4 4 4 4 4 4 3 3 3 2 2
9 9 9 9 9 8 8 8 8 7 7 7 6 6 6 6 6 5 5 5 5 5 4 4 4 4 3 3 3 3 3 3 3 3 3 2 2 2
Wind_Speed
4 5 4 3 3 3 3 4 5 3 0 2 1 2 2 3 5 6 7 8 9 10 11 12 12 12 13 13 13 14 14 13 13 13 12 12 12 12
3 5 4 3 3 3 3 2 3 4 2 2 2 1 1 3 4 6 6 7 8 9 10 10 11 11 12 12 12 13 13 13 12 13 13 12 12 11
4 5 4 4 4 3 3 3 3 3 4 0 0 1 1 2 3 4 5 6 6 8 8 9 10 11 11 11 12 12 12 12 12 12 12 12 12 11
3 4 3 4 4 3 4 4 3 3 4 3 1 1 1 1 2 2 3 4 5 6 7 7 8 9 9 10 10 10 11 11 11 11 11 11 11 11
3 4 3 4 4 3 4 4 3 3 3 3 1 1 1 1 2 2 3 3 4 4 5 6 6 6 7 8 8 9 9 10 10 11 11 11 10 10
3 4 4 4 4 4 4 4 4 4 3 3 2 1 1 1 2 2 2 2 2 3 4 5 5 5 6 6 6 7 8 9 8 9 9 9 9 10
2 2 2 4 5 5 4 4 4 3 3 3 2 1 1 1 1 0 1 2 2 2 2 3 3 3 4 4 4 5 6 7 8 8 8 8 8 8
3 2 1 2 4 6 6 6 6 5 4 3 1 1 1 1 0 1 1 1 2 2 1 2 2 2 4 5 5 5 6 6 6 7 7 7 8 8
3 2 2 2 3 3 4 4 2 3 5 5 4 3 3 3 2 1 1 2 2 2 1 2 2 2 4 5 5 5 5 5 6 7 7 7 8 8
3 3 3 3 3 4 4 2 1 1 1 3 4 4 4 4 4 3 3 1 1 2 1 1 2 2 3 4 4 4 4 5 6 6 6 7 7 7
1 2 4 4 4 6 5 3 0 2 1 2 4 4 4 5 4 3 2 1 1 2 1 1 2 2 2 3 5 5 5 6 6 6 7 7 7 7
0 0 2 4 5 6 5 5 3 3 1 1 1 2 1 2 3 4 4 3 1 2 2 2 1 1 3 3 3 5 5 6 7 7 8 8 8 6
2 1 1 3 4 5 5 4 5 3 1 1 1 2 2 2 2 2 4 4 3 4 3 3 1 1 2 3 3 3 4 4 5 7 9 9 9 6
3 2 2 3 3 4 4 4 4 2 1 0 1 2 2 2 2 3 4 5 6 6 5 4 3 3 2 3 4 4 3 5 4 4 7 9 9 9
3 3 3 2 2 1 2 3 2 2 1 1 2 3 3 3 2 1 2 2 3 4 5 5 4 3 3 4 4 3 3 4 3 3 5 5 5 6
1 1 1 1 1 1 1 1 1 2 3 3 3 3 2 1 2 1 1 1 2 3 4 4 5 4 3 4 4 5 4 4 3 4 4 5 7 8
3 2 2 1 1 1 1 1 1 1 1 2 2 2 2 2 2 2 1 1 1 3 4 3 4 4 4 4 4 5 4 4 5 4 3 5 6 8
5 2 1 1 1 2 1 1 1 1 2 2 2 2 2 2 3 2 1 1 2 3 3 3 2 3 3 3 6 5 4 5 5 4 4 4 7 7
3 1 1 2 2 1 1 2 2 2 2 1 2 2 2 2 2 2 2 2 2 3 3 2 1 1 3 6 5 6 5 5 4 4 4 5 7 7
1 2 2 2 2 2 2 2 2 2 1 1 2 2 2 2 2 2 2 3 3 3 3 2 2 3 5 6 6 5 8 6 4 5 5 5 6 9
1 2 2 2 2 2 2 2 1 1 1 1 2 2 2 2 2 3 3 4 3 3 4 4 5 7 4 2 4 5 5 9 9 6 5 5 6 5
1 2 2 1 1 1 1 1 1 1 2 2 2 2 2 2 3 3 3 3 3 4 5 5 4 3 2 4 7 7 6 7 9 12 11 9 4 5
1 1 1 1 1 1 1 1 1 2 2 2 2 2 2 2 3 3 3 3 3 4 4 4 3 3 3 4 6 7 8 7 5 5 6 11 13 16
Wind_Direction
88 88 85 77 85 102 122 136 137 126 6 293 313 334 16 57 64 67 64 67 64 62 59 55 53 51 49 48 47 47 50 50 50 52 54 55 56 57
88 87 80 74 71 79 103 107 121 136 152 241 244 263 6 61 64 66 63 65 61 61 62 59 56 53 50 49 48 49 51 52 51 51 50 49 50 50
76 86 80 81 78 71 82 90 95 114 128 233 310 357 41 56 58 63 59 58 53 57 62 60 56 53 51 51 51 51 51 51 51 50 48 46 45 44
98 95 86 89 79 71 80 83 89 102 128 129 14 13 34 59 68 68 53 53 49 50 53 52 52 52 50 48 49 50 50 49 48 47 44 42 40 37
126 120 114 104 91 84 86 88 85 83 93 117 89 18 23 40 55 45 41 36 32 40 40 39 41 43 44 43 43 44 44 44 43 42 39 37 35 33
119 128 132 134 135 126 109 106 105 89 86 96 81 37 25 17 62 55 24 9 4 20 22 26 31 37 37 38 36 37 36 35 34 33 32 32 32 30
95 109 133 145 153 149 137 134 123 110 101 98 88 48 19 30 25 14 71 355 351 4 2 4 13 14 7 8 17 24 27 29 27 25 23 23 24 23
133 114 110 117 125 124 130 139 144 142 146 141 144 161 236 231 199 125 118 50 325 323 15 332 6 329 321 329 340 0 12 17 15 14 16 20 18 11
155 153 146 138 126 116 102 100 100 150 169 163 169 202 209 211 177 162 183 186 228 264 54 312 332 314 309 322 333 344 358 4 3 3 5 3 1 0
175 176 164 162 166 153 133 103 61 358 201 173 186 210 215 201 186 185 187 182 295 302 130 259 309 299 312 317 322 326 339 344 346 347 346 347 347 346
203 179 168 174 187 164 143 145 130 317 22 167 195 219 229 219 183 129 111 97 308 293 242 184 273 296 301 299 306 311 316 323 326 332 332 330 332 333
206 232 186 183 183 167 160 165 192 244 247 27 14 342 320 274 216 183 174 171 206 271 251 178 246 328 316 294 295 305 310 310 309 315 320 318 318 324
188 224 242 197 191 184 173 180 202 195 168 191 304 318 329 317 292 224 195 178 189 235 233 174 204 207 229 286 302 294 296 303 308 309 314 312 311 308
200 216 227 212 199 192 191 203 200 161 129 108 313 298 292 285 276 261 237 222 220 231 239 190 195 203 216 263 282 297 301 295 292 296 307 312 311 305
203 202 206 207 199 217 222 217 195 169 174 210 247 258 254 258 274 300 298 268 269 265 255 229 204 215 206 230 255 267 287 289 283 286 298 297 296 299
205 193 137 126 151 281 309 292 215 200 202 227 246 256 273 283 274 258 263 295 312 305 294 264 231 203 226 240 240 262 262 273 288 283 283 286 289 286
138 88 58 41 353 324 318 302 288 267 243 247 249 269 280 280 276 268 235 218 236 276 298 309 301 261 234 230 252 261 266 270 270 272 279 285 278 282
126 131 177 206 232 247 262 289 291 269 258 251 253 254 263 267 278 290 275 246 261 271 278 288 315 335 330 286 231 246 261 265 270 267 256 272 284 284
128 172 201 219 238 247 248 250 267 269 261 251 256 263 266 270 275 283 286 284 279 278 281 284 284 265 291 291 279 239 241 267 273 273 260 255 270 280
173 203 224 236 243 248 252 256 273 293 289 274 269 272 269 265 274 280 273 270 273 277 284 284 264 251 251 266 273 273 257 248 257 270 275 273 270 280
215 231 238 235 242 246 251 255 258 268 281 281 281 277 273 265 272 276 275 278 273 273 276 274 270 272 269 286 291 286 278 270 264 263 272 281 290 292
213 232 249 250 253 258 262 264 276 284 293 285 284 287 282 271 270 273 275 280 277 273 275 280 292 299 277 271 281 285 290 295 293 284 271 260 262 268
233 240 263 281 281 276 263 259 259 271 272 272 277 281 282 281 279 273 271 272 278 285 292 296 303 298 282 276 283 290 292 296 299 302 291 288 282 279
Height
1566 1566 1566 1567 1567 1568 1569 1570 1570 1570 1571 1571 1570 1570 1569 1569 1568 1567 1565 1564 1562 1561 1559 1558 1556 1555 1553 1551 1549 1547 1545 1544 1543 1543 1543 1542 1541 1541
1567 1567 1568 1568 1568 1569 1569 1570 1571 1571 1571 1571 1571 1571 1571 1570 1569 1568 1567 1565 1564 1563 1561 1560 1558 1556 1555 1553 1550 1548 1547 1546 1545 1544 1544 1543 1543 1542
1568 1568 1568 1569 1569 1569 1570 1570 1571 1571 1571 1571 1572 1572 1571 1571 1570 1569 1568 1567 1566 1564 1563 1561 1560 1558 1556 1554 1552 1550 1549 1547 1546 1546 1545 1544 1544 1542
1569 1569 1569 1570 1570 1570 1570 1571 1571 1571 1571 1571 1572 1572 1572 1571 1571 1570 1569 1568 1567 1566 1564 1563 1561 1559 1558 1555 1554 1552 1550 1549 1548 1547 1546 1545 1544 1543
1570 1570 1570 1571 1570 1571 1571 1571 1571 1571 1572 1572 1572 1572 1572 1572 1571 1571 1570 1569 1568 1567 1565 1564 1562 1560 1559 1557 1555 1553 1551 1550 1549 1548 1546 1545 1544 1543
1571 1571 1571 1571 1571 1571 1571 1572 1572 1572 1572 1572 1572 1572 1572 1572 1571 1571 1570 1569 1568 1567 1566 1564 1563 1561 1560 1558 1556 1554 1552 1551 1549 1548 1547 1545 1544 1543
1572 1572 1572 1572 1572 1572 1572 1572 1572 1573 1573 1573 1572 1572 1572 1572 1571 1570 1570 1569 1568 1567 1566 1565 1563 1562 1560 1558 1556 1555 1553 1551 1550 1548 1546 1545 1543 1542
1572 1572 1572 1572 1573 1573 1573 1573 1573 1573 1573 1573 1572 1572 1572 1571 1571 1570 1569 1568 1567 1567 1565 1564 1563 1561 1560 1558 1556 1555 1553 1551 1549 1548 1546 1544 1542 1541
1572 1572 1572 1572 1572 1573 1573 1573 1572 1572 1573 1572 1572 1571 1571 1570 1570 1569 1568 1567 1566 1566 1565 1563 1562 1560 1559 1557 1556 1554 1553 1551 1549 1547 1545 1543 1541 1539
1572 1572 1572 1572 1572 1572 1572 1572 1572 1572 1571 1571 1571 1570 1570 1569 1569 1568 1567 1566 1565 1565 1563 1562 1560 1559 1558 1556 1555 1553 1551 1549 1547 1545 1543 1541 1539 1537
1571 1571 1571 1571 1571 1571 1571 1571 1571 1570 1570 1570 1569 1569 1568 1567 1567 1566 1565 1564 1563 1562 1561 1560 1558 1556 1555 1554 1553 1551 1549 1547 1545 1543 1541 1538 1536 1534
1569 1570 1570 1570 1570 1570 1570 1569 1569 1569 1568 1568 1567 1567 1566 1565 1565 1564 1563 1562 1561 1560 1559 1558 1556 1555 1552 1551 1550 1549 1547 1545 1542 1540 1538 1535 1533 1530
1568 1568 1568 1568 1568 1568 1568 1567 1567 1567 1566 1565 1565 1564 1563 1563 1562 1561 1561 1560 1559 1557 1557 1555 1554 1552 1551 1548 1547 1545 1543 1541 1539 1536 1534 1532 1529 1527
1566 1566 1566 1566 1566 1566 1565 1565 1565 1564 1563 1563 1562 1561 1561 1560 1560 1559 1558 1557 1556 1555 1554 1553 1551 1549 1547 1545 1543 1541 1540 1538 1535 1533 1530 1528 1525 1523
1564 1564 1564 1563 1563 1563 1563 1562 1562 1561 1560 1559 1559 1558 1558 1557 1556 1555 1555 1554 1553 1552 1550 1549 1548 1546 1544 1541 1539 1537 1535 1533 1531 1528 1526 1523 1521 1518
1561 1561 1561 1560 1560 1560 1560 1559 1559 1558 1557 1556 1555 1555 1554 1553 1552 1551 1550 1549 1548 1547 1547 1545 1543 1542 1539 1537 1535 1532 1530 1528 1526 1524 1521 1518 1516 1513
1558 1558 1557 1557 1557 1557 1556 1556 1555 1555 1554 1553 1552 1551 1550 1549 1548 1547 1546 1544 1543 1542 1541 1540 1539 1537 1535 1533 1530 1527 1525 1523 1521 1518 1515 1512 1510 1508
1555 1554 1554 1554 1553 1553 1553 1552 1552 1551 1550 1550 1548 1547 1546 1545 1544 1543 1541 1540 1538 1537 1536 1535 1533 1531 1529 1527 1526 1522 1520 1517 1515 1513 1510 1506 1503 1502
1552 1551 1551 1550 1550 1550 1549 1549 1548 1548 1547 1546 1545 1543 1542 1541 1540 1538 1537 1535 1534 1532 1531 1530 1528 1525 1522 1519 1518 1518 1515 1512 1509 1507 1504 1501 1497 1495
1548 1548 1548 1547 1547 1547 1546 1545 1544 1544 1543 1541 1540 1539 1538 1537 1535 1534 1532 1531 1529 1527 1526 1524 1523 1520 1518 1515 1512 1511 1510 1507 1503 1500 1497 1494 1491 1489
1545 1545 1544 1544 1544 1543 1542 1541 1540 1539 1538 1537 1536 1534 1533 1532 1530 1529 1527 1526 1524 1522 1520 1518 1517 1515 1513 1510 1506 1503 1503 1501 1498 1495 1491 1488 1484 1481
1542 1542 1541 1540 1540 1539 1538 1537 1536 1534 1533 1532 1531 1530 1528 1527 1525 1524 1522 1520 1519 1517 1514 1512 1511 1509 1506 1504 1500 1497 1495 1493 1491 1489 1486 1483 1479 1474
1539 1538 1537 1537 1536 1535 1534 1533 1531 1530 1529 1527 1526 1525 1523 1522 1520 1519 1517 1515 1513 1511 1509 1507 1504 1502 1500 1498 1494 1491 1488 1486 1483 1480 1479 1477 1474 1471